TimeCST,TemperatureF,Dew PointF,Humidity,Sea Level PressureIn,VisibilityMPH,Wind Direction,Wind SpeedMPH,Gust SpeedMPH,PrecipitationIn,Events,Conditions,WindDirDegrees,DateUTC
12:53 AM,21.0,15.1,78,30.38,10.0,West,10.4,-,N/A,,Clear,260,2013-01-06 06:53:00
1:53 AM,18.0,12.9,81,30.37,10.0,West,8.1,-,N/A,,Clear,280,2013-01-06 07:53:00
2:53 AM,17.1,12.0,81,30.38,10.0,WSW,10.4,-,N/A,,Clear,250,2013-01-06 08:53:00
3:53 AM,17.1,10.9,77,30.39,10.0,West,10.4,-,N/A,,Clear,260,2013-01-06 09:53:00
4:53 AM,16.0,10.0,77,30.39,10.0,West,13.8,-,N/A,,Clear,260,2013-01-06 10:53:00
5:53 AM,16.0,9.0,74,30.39,10.0,West,16.1,-,N/A,,Clear,260,2013-01-06 11:53:00
6:53 AM,12.9,6.1,74,30.41,10.0,West,4.6,-,N/A,,Clear,260,2013-01-06 12:53:00
7:53 AM,12.9,6.1,74,30.42,10.0,West,3.5,-,N/A,,Clear,260,2013-01-06 13:53:00
8:53 AM,12.0,6.1,77,30.43,10.0,West,5.8,-,N/A,,Clear,260,2013-01-06 14:53:00
9:53 AM,14.0,7.0,74,30.42,10.0,WSW,5.8,-,N/A,,Clear,250,2013-01-06 15:53:00
10:53 AM,18.0,10.0,71,30.40,10.0,WSW,6.9,-,N/A,,Clear,240,2013-01-06 16:53:00
11:53 AM,21.9,12.0,66,30.37,10.0,Calm,Calm,-,N/A,,Clear,0,2013-01-06 17:53:00
12:53 PM,28.0,17.1,63,30.31,10.0,ESE,3.5,-,N/A,,Clear,120,2013-01-06 18:53:00
1:53 PM,34.0,21.9,61,30.26,10.0,Calm,Calm,-,N/A,,Clear,0,2013-01-06 19:53:00
2:53 PM,39.0,26.1,60,30.21,10.0,South,10.4,-,N/A,,Clear,180,2013-01-06 20:53:00
3:53 PM,39.0,27.0,62,30.19,10.0,South,10.4,-,N/A,,Clear,170,2013-01-06 21:53:00
4:53 PM,37.9,26.1,62,30.17,10.0,SSE,6.9,-,N/A,,Clear,160,2013-01-06 22:53:00
5:53 PM,32.0,23.0,69,30.16,10.0,SE,5.8,-,N/A,,Clear,140,2013-01-06 23:53:00
6:53 PM,32.0,23.0,69,30.15,10.0,SSE,10.4,-,N/A,,Clear,160,2013-01-07 00:53:00
7:53 PM,28.0,21.9,78,30.15,10.0,Calm,Calm,-,N/A,,Clear,0,2013-01-07 01:53:00
8:53 PM,26.1,21.9,84,30.15,10.0,Calm,Calm,-,N/A,,Clear,0,2013-01-07 02:53:00
9:53 PM,23.0,19.9,88,30.13,10.0,SE,5.8,-,N/A,,Clear,130,2013-01-07 03:53:00
10:53 PM,21.9,19.9,92,30.10,10.0,SSE,9.2,-,N/A,,Clear,150,2013-01-07 04:53:00
11:53 PM,21.0,18.0,88,30.08,10.0,Calm,Calm,-,N/A,,Clear,0,2013-01-07 05:53:00